Home   Weather   Battle Ground   Past weeks
Flag for USA

Past Weather in Battle Ground, Washington, USA — Yesterday and Last 2 Weeks

Now
48 °F

Sunny.


Feels Like: 45 °F
Forecast: 65 / 44 °F
Wind: 6 mph from Southeast

Location: Vancouver - Pearson Airpark

Current Time: Mar 18, 2019 at 9:34:57 am

Latest Report: Mar 18, 2019 at 8:53 am


Visibility: 10 mi

Pressure: 30.16 "Hg

Humidity: 59%

Dew Point: 34 °F

Location of Battle GroundLocation

Past Weather in Battle Ground — Graph

°F

Battle Ground Temperature Yesterday

Maximum temperature yesterday: 70 °F (at 3:53 pm)
Minimum temperature yesterday: 32 °F (at 6:53 am)
Average temperature yesterday: 49 °F

High & Low Weather Summary for the Past Weeks

 TemperatureHumidityPressure
High70 °F (Mar 17, 3:53 pm)97% (Mar 9, 3:53 am)30.43 "Hg (Mar 9, 3:53 am)
Low21 °F (Mar 5, 5:53 am)20% (Mar 17, 5:53 pm)29.61 "Hg (Mar 6, 9:53 am)
Average40 °F68%30.10 "Hg
* Reported Mar 3 6:53 am — Mar 18 7:53 am, Battle Ground. Weather by CustomWeather, © 2019

Note: Actual official high and low records may vary slightly from our data, if they occured in-between our weather recording intervals... More about our weather records

Advertising

Battle Ground Weather History for the Previous 24 Hours

Scroll right to see more
 ConditionsComfort  
Time TempWeatherWind HumidityBarometerVisibility
7:53 am
Mon, Mar 18
45 °FSunny.5 mph63%30.17 "Hg10 mi
6:53 am39 °FClear.No wind73%30.17 "Hg10 mi
5:53 am36 °FClear.No wind82%30.18 "Hg10 mi
4:53 am36 °FClear.No wind82%30.17 "Hg10 mi
3:53 am39 °FClear.No wind73%30.18 "Hg10 mi
2:53 am40 °FClear.No wind70%30.18 "Hg10 mi
1:53 am39 °FClear.No wind73%30.19 "Hg10 mi
12:53 am45 °FClear.No wind63%30.19 "Hg10 mi
11:53 pm
Sun, Mar 17
48 °FClear.6 mph56%30.21 "Hg10 mi
10:53 pm47 °FClear.No wind59%30.21 "Hg10 mi
9:53 pm49 °FClear.No wind55%30.20 "Hg10 mi
8:53 pm51 °FClear.3 mph50%30.20 "Hg10 mi
7:53 pm60 °FClear.12 mph28%30.18 "Hg10 mi
6:53 pm63 °FSunny.17 mph24%30.17 "Hg10 mi
5:53 pm67 °FSunny.18 mph20%30.16 "Hg10 mi
4:53 pm69 °FSunny.13 mph21%30.17 "Hg10 mi
3:53 pm70 °FSunny.8 mph22%30.18 "Hg10 mi
2:53 pm64 °FSunny.3 mph37%30.20 "Hg10 mi
1:53 pm59 °FSunny.6 mph46%30.22 "Hg10 mi
12:53 pm56 °FSunny.7 mph51%30.24 "Hg10 mi
11:53 am53 °FSunny.6 mph56%30.26 "Hg10 mi
10:53 am48 °FSunny.3 mph68%30.28 "Hg10 mi
9:53 am44 °FSunny.5 mph79%30.28 "Hg10 mi
Weather by CustomWeather, © 2019

See weather overview